FREGAT DEB, 45841

Orbit data source: Space-Track

FREGAT DEB, 45841 is space debris in LEO originally from a launch on Mon, 18 Jul 2011 UTC launched from the Tyuratam Missile And Space Complex (TTMTR). Debris objects in space refer to the collection of defunct objects orbiting the Earth. Examples of debris include non-operational satellites, rocket bodies, and fragments generated from explosions, collisions, or faulty payload assembly.

Loading next visibility...
Identifier
45841, 2011-037CB
Orbit
LEO
Country
Flag of CISCIS
Related business
Manufacturer
Lavochkin
Mission
Spacecraft
Bus & Motor
Unknown
Mass
Unknown
Launch date (UTC)
2011-07-18 (14 years ago)
Launch vehicle
Unknown
Launch site
Tyuratam Missile And Space Complex (TTMTR)
Object type
Payload
Rocket body
Debris
Shape & HBR
Unknown shape, 0.1 m
Radar Cross Section
Small (<0.1 m²)

Expand to show TLE details & history
Last TLE update: 15 hours ago

TLE from 15 hours ago
0 FREGAT DEB
1 45841U 11037CB  25297.43503426  .00000098  00000-0  28770-3 0  9990
2 45841  51.5087  22.6194 1927086  37.4173 334.6318 10.59463769208516
Epoch: 2025-10-24T10:26Z
TLE epoch observation values (Epoch: 2025-10-24T10:26:26.960Z)
Latitude
0.00004°
Longitude
-167.07288°
Altitude
933.631 km
Speed
7.971 km/s
True Right ascension
01h 30m 28s
True Declination
0° 00' 00"
Sunlit
Object was in full shadow at epoch
Visualization orbit readout
Latitude
Unknown
Longitude
Unknown
Altitude
Unknown
Speed
Unknown
Apparent Right ascension
Unknown
Apparent Declination
Unknown
Sunlit
N/A
Visualization observer readout
Local Sidereal Time
20:19:21
Azimuth
Unknown
Elevation
Unknown
Doppler factor
Unknown
Orbital elements
Apogee altitude
4,066.671 km
Perigee altitude
691.489 km
Semi-major axis
8,757.217 km
Eccentricity
0.19271
Inclination
51.5087°
RAAN
22.6194°
Arg. of periapsis
37.4173°
True anomaly
322.66621°
Mean anomaly
334.6318°
Eccentric anomaly
328.9342°
Mean motion
2.64846 °/min
Orbital period
135.93 mins
BSTAR
0.0002877
Loading maneuver chart data...
Computing Atmospheric mass density...
Loading historical data...
Loading historical data...
Loading historical data...
Loading historical data...
Loading historical data...
Loading historical data...
Loading historical data...

Documentation

Showing up to 5 results
|